Location: ????
(30.1475°N, 31.1342°E)
Time: 07:34:09
(UTC+00:00)

Meteor 1-14 Rocket - Pass Details

Date: 29 March 2023
Orbit: 834 x 918 km, 81.3° (Epoch: 03 June)

Event Time Altitude Azimuth Distance (km) Brightness Sun altitude
Rises 02:07:38 0° 349° (N) 3,387 7.4 -22.3°
Reaches altitude 10° 02:10:03 10° 347° (NNW) 2,455 6.7 -21.8°
Maximum altitude 02:15:33 70° 265° (W) 899 4.1 -20.7°
Drops below altitude 10° 02:21:08 10° 182° (S) 2,481 6.5 -19.5°
Sets 02:23:35 0° 180° (S) 3,426 7.2 -19.0°
